Miscellaneous Local Product
Issued by NWS North Platte, NE

Home | Current Version | Previous Version | Graphics & Text | Print | Product List | Glossary On
Versions: 1 2 3 4 5 6 7 8 9 10 11 12 13 14 15 16 17 18 19 20 21 22 23 24 25 26 27 28 29 30 31 32 33 34 35 36 37 38 39 40 41 42 43 44 45 46 47 48 49 50
000
AXUS43 KLBF 040710
MISLBF


WESTERN AND NORTH CENTRAL NEBRASKA HOURLY WEATHER ROUNDUP
NATIONAL WEATHER SERVICE NORTH PLATTE NE
200 AM CDT TUE AUG 04 2015

***STATIONS NOT REPORTING VARIABLES SUCH AS SKY/WEATHER OR
PRESSURE ARE PROVIDED BY THE NEBRASKA DEPARTMENT OF
ROADS...RAWS...AND APRS NETWORKS...AND ARE NOT UNDER
NATIONAL WEATHER SERVICE QUALITY CONTROL***

...OBSERVATIONS IN AND NEAR THE EASTERN PANHANDLE OF NEBRASKA...

CITY           SKY/WX    TMP DP  RH WIND       PRES   REMARKS
PINE RIDGE     MOCLDY    71  61  70 E6        29.93F
CHADRON        CLOUDY    66  61  84 W6        29.92R
ALLIANCE       CLOUDY    68  56  65 S8        29.97F
SIDNEY         PTCLDY    63  50  62 W5        30.04S
BIG SPRINGS      N/A     65  60  82 CALM        N/A
$$

...OBSERVATIONS IN NORTH CENTRAL NEBRASKA...

CITY           SKY/WX    TMP DP  RH WIND       PRES   REMARKS
THEDFORD       PTCLDY    68  63  84 SE6       29.98F
AINSWORTH      PTCLDY    67  62  82 SE9       29.97F
O`NEILL        CLOUDY    68  63  83 SE7       29.95F THUNDER
ORD            PTCLDY    68  63  84 SE6       29.96F
SPRINGVIEW       N/A     66  63  90 E5          N/A
CHAMBERS         N/A     66  62  86 SE7         N/A
EWING            N/A     66  63  90 S3          N/A
$$

...OBSERVATIONS IN SOUTHWEST NEBRASKA AND FAR NORTHEAST COLORADO...

CITY           SKY/WX    TMP DP  RH WIND       PRES   REMARKS
WRAY           FAIR      61  53  75 CALM      30.00F
HOLYOKE        FAIR      63  55  77 SW3       30.01S
IMPERIAL       CLEAR     63  56  78 E3        29.99S
OGALLALA       MOCLDY    69  68  96 E5        29.99S
NORTH PLATTE   PTCLDY    68  65  90 SE9       29.98S
MCCOOK         MOCLDY    72  70  93 NE6       29.95S FOG
LEXINGTON      PTCLDY    70  67  92 E7        29.98S
PAXTON           N/A     71  69  92 SE3         N/A
BRADY            N/A     67  64  91 CALM        N/A
CALLAWAY         N/A     67  65  95 SE8         N/A
$$

...NORTH PLATTE AREA...

CITY           SKY/WX    TMP DP  RH WIND       PRES   REMARKS
AIRPORT        PTCLDY    68  65  90 SE9       29.98S
DOWNTOWN         N/A     70  67  90 CALM        N/A
HILLCREST        N/A     67  65  94 SE8         N/A
$$

...SOME WEATHER OBSERVATIONS FROM AROUND THE REGION...

CITY           SKY/WX    TMP DP  RH WIND       PRES   REMARKS
DENVER         PTCLDY    63  52  67 W7        30.08R
LARAMIE        CLOUDY    54  51  90 S5        30.19R
CHEYENNE       CLOUDY    66  46  48 W13       30.10F
SCOTTSBLUFF    MOCLDY    72  51  47 S6        29.98F
RAPID CITY     CLOUDY    69  60  73 N6        29.98R
PIERRE         MOCLDY    65  57  75 E9        29.93F
WINNER         LGT RAIN  69  62  78 SE8       29.95F
SIOUX FALLS    CLEAR     61  59  93 CALM      29.98F
OMAHA          MOCLDY    72  62  71 SE5       29.96F
GRAND ISLAND   MOCLDY    69  64  84 SE8       29.98S
KANSAS CITY    PTCLDY    74  67  78 E7        29.94F
WICHITA        CLOUDY    76  67  73 S5        29.94R
HAYS           CLOUDY    75  63  64 SE7       29.94F
LIBERAL        MOCLDY    73  66  78 SE6       29.96
GOODLAND       CLOUDY    68  60  75 E5        30.01F
$$



USA.gov is the U.S. government's official web portal to all federal, state and local government web resources and services.